Home > Weather > Bozeman > Past weeks

Flag for U.S.A. Weather for the Past 2 Weeks in Bozeman, Montana, U.S.A.

Now
18 °F

Passing clouds.


Feels Like: 9 °F
Forecast: 23 / 36 °F
Wind: 7 mph from Southeast

Location: Gallatin Field

Current Time: Feb 6, 2016 at 1:10:52 AM

Latest Report: Feb 6, 2016 at 12:56 AM


Visibility: 10 mi

Pressure: 30.33 "Hg (25.10 "Hg at 1469m altitude)

Humidity: 74%

Dew point: 11 °F

Location of BozemanLocation

Historic Weather in Bozeman — Graph

°F

Bozeman Temperature Yesterday

Maximum temperature yesterday: 36 °F (at 3:56 PM)
Minimum temperature yesterday: 12 °F (at 7:56 AM)
Average temperature yesterday: 25 °F

High & Low Weather Summary for the Past Weeks

 TemperatureHumidityPressure
High44 °F (Jan 28, 8:56 PM)100% (Jan 24, 3:56 AM)30.59 "Hg (Jan 24, 3:56 AM)
Low-3 °F (Feb 1, 1:56 AM)45% (Jan 28, 8:56 PM)29.59 "Hg (Jan 29, 9:01 PM)
Average22 °F76%30.17 "Hg
* Reported Jan 21 11:56 PM — Feb 5 11:56 PM, Bozeman, Weather by CustomWeather, © 2016

Note: Actual official high and low records may vary slightly from our data, if they occured in-between our weather recording intervals... More about our weather records

Advertising

Bozeman Weather History for the Previous 24 Hours

 ConditionsComfort  
Time TempWeatherWind HumidityBarometerVisibility
11:56 PM
Fri, Feb 5
18 °FClear.9 mph77%30.35 "Hg10 mi
10:56 PM22 °FClear.6 mph75%30.38 "Hg10 mi
9:56 PM24 °FClear.5 mph71%30.39 "Hg10 mi
8:56 PM25 °FClear.No wind69%30.41 "Hg10 mi
7:56 PM24 °FClear.6 mph71%30.45 "Hg10 mi
6:56 PM30 °FClear.No wind64%30.41 "Hg10 mi
5:56 PM25 °FClear.5 mph66%30.42 "Hg10 mi
4:56 PM35 °FSunny.6 mph52%30.40 "Hg10 mi
3:56 PM36 °FSunny.No wind50%30.40 "Hg10 mi
2:56 PM35 °FSunny.No wind52%30.40 "Hg10 mi
1:56 PM33 °FSunny.No wind56%30.41 "Hg10 mi
12:56 PM30 °FPassing clouds.3 mph64%30.45 "Hg10 mi
11:56 AM27 °FOvercast.No wind72%30.48 "Hg10 mi
10:56 AM23 °FPartly sunny.3 mph72%30.51 "Hg10 mi
9:56 AM19 °FPassing clouds.3 mph71%30.54 "Hg10 mi
8:56 AM17 °FPassing clouds.7 mph70%30.53 "Hg10 mi
7:56 AM12 °FSunny.7 mph77%30.55 "Hg10 mi
6:56 AM16 °FClear.9 mph74%30.53 "Hg10 mi
5:56 AM19 °FPassing clouds.5 mph71%30.50 "Hg10 mi
4:56 AM20 °FClear.No wind74%30.49 "Hg10 mi
3:56 AM22 °FPassing clouds.No wind75%30.47 "Hg10 mi
2:56 AM27 °FPassing clouds.No wind63%30.45 "Hg10 mi
1:56 AM28 °FOvercast.No wind64%30.42 "Hg10 mi
Weather by CustomWeather, © 2016

See weather overviewHow to use our weather pages